Flag for Tajikistan Weather past 2 weeks in Dushanbe, Tajikistan

Now
81 °F

Passing clouds.


Feels Like: 80 °F
Forecast: 75 / 97 °F
Wind: 6 mph from East

Location: Dushanbe Airport

Current Time: Jul 1, 2015 at 12:54:52 AM

Latest Report: Jul 1, 2015 at 12:30 AM


Visibility: N/A

Pressure: 29.77 "Hg

Humidity: 37%

Dew point: 52 °F

Location of DushanbeLocation

Historic Weather in Dushanbe — Graph

°F

Dushanbe temperature yesterday

Maximum temperature yesterday: 99 °F (at 1:30 PM)
Minimum temperature yesterday: 72 °F (at 4:00 AM)
Average temperature yesterday: 87 °F

Past Weeks' High & Low Weather Summary

 TemperatureHumidityPressure
High100 °F (Jun 19, 1:30 PM)68% (Jun 26, 3:00 AM)29.89 "Hg (Jun 26, 3:00 AM)
Low63 °F (Jun 24, 5:30 AM)12% (Jun 18, 3:30 PM)29.56 "Hg (Jun 22, 4:00 PM)
Average82 °F35%29.71 "Hg
* Reported Midnight between Jun 15 and Jun 16 — Midnight between Jun 30 and Jul 1, Dushanbe, Weather by CustomWeather, © 2015

Note: Actual official high and low records may vary slightly from our data, if they occured in-between our weather recording intervals... More about our weather records

Advertising

Dushanbe weather history for previous 24 hours

 ConditionsComfort  
Time TempWeatherWind HumidityBarometerVisibility
12:00 AM
Wed, Jul 1
79 °FPassing clouds.3 mph42%29.77 "HgN/A
11:30 PM
Tue, Jun 30
81 °FPassing clouds.3 mph34%29.77 "HgN/A
11:00 PM79 °FPassing clouds.6 mph42%29.77 "HgN/A
10:00 PM84 °FPassing clouds.3 mph33%29.77 "HgN/A
9:30 PM86 °FPassing clouds.3 mph33%29.77 "HgN/A
9:00 PM90 °FPassing clouds.1 mph27%29.77 "HgN/A
8:00 PM91 °FPassing clouds.6 mph24%29.74 "HgN/A
7:30 PM91 °FScattered clouds.6 mph24%29.74 "HgN/A
6:30 PM95 °FPassing clouds.6 mph22%29.74 "HgN/A
6:00 PM99 °FPassing clouds.1 mph15%29.74 "HgN/A
5:30 PM99 °FPassing clouds.1 mph16%29.74 "HgN/A
5:00 PM99 °FPassing clouds.1 mph16%29.74 "HgN/A
4:30 PM99 °FPassing clouds.6 mph16%29.74 "HgN/A
4:00 PM99 °FPassing clouds.6 mph17%29.74 "HgN/A
3:30 PM99 °FPassing clouds.3 mph17%29.77 "HgN/A
3:00 PM99 °FPassing clouds.3 mph17%29.77 "HgN/A
2:30 PM99 °FPassing clouds.6 mph17%29.77 "HgN/A
2:00 PM99 °FPassing clouds.6 mph17%29.77 "HgN/A
1:30 PM99 °FPassing clouds.3 mph18%29.80 "HgN/A
1:00 PM97 °FPassing clouds.3 mph19%29.80 "HgN/A
12:30 PM97 °FPassing clouds.6 mph20%29.80 "HgN/A
12:00 PM97 °FPassing clouds.8 mph20%29.83 "HgN/A
11:30 AM95 °FPassing clouds.8 mph25%29.83 "HgN/A
11:00 AM93 °FClear.8 mph21%29.83 "HgN/A
10:30 AM91 °FClear.10 mph24%29.83 "HgN/A
10:00 AM90 °FClear.10 mph26%29.83 "HgN/A
9:30 AM90 °FClear.10 mph27%29.83 "HgN/A
8:30 AM84 °FClear.6 mph31%29.86 "HgN/A
8:00 AM82 °FClear.10 mph32%29.86 "HgN/A
7:30 AM81 °FClear.13 mph34%29.83 "HgN/A
7:00 AM79 °FPassing clouds.10 mph37%29.83 "HgN/A
6:30 AM77 °FPassing clouds.13 mph39%29.83 "HgN/A
6:00 AM75 °FClear.10 mph39%29.83 "HgN/A
5:30 AM73 °FClear.8 mph41%29.83 "HgN/A
5:00 AM75 °FClear.10 mph39%29.83 "HgN/A
4:30 AM73 °FClear.8 mph44%29.83 "HgN/A
4:00 AM72 °FClear.6 mph47%29.83 "HgN/A
3:30 AM73 °FClear.6 mph44%29.83 "HgN/A
3:00 AM75 °FClear.8 mph41%29.83 "HgN/A
2:30 AM75 °FClear.8 mph41%29.83 "HgN/A
2:00 AM77 °FClear.6 mph39%29.86 "HgN/A
1:30 AM75 °FClear.6 mph41%29.86 "HgN/A
1:00 AM77 °FClear.8 mph42%29.86 "HgN/A
12:30 AM77 °FClear.8 mph39%29.86 "HgN/A
12:00 AM77 °FClear.8 mph39%29.86 "HgN/A
Weather by CustomWeather, © 2015

See weather overviewHow to use our weather pages